This is the latest recevied weather packets stored in our database for station/object K4DFD-13. If no packets are shown the sender has not sent any weather packets the latest 1 day(s).
| Time | Temp. | Humidity | Pressure | Rain* | Wind** | Luminosity | Snow |
|---|---|---|---|---|---|---|---|
| 1777992064 | 20° C | 47% | 1016.4 hPa | 0 mm | 3.13 m/s, 267° | - | - |
| 1777991767 | 20° C | 49% | 1016.4 hPa | 0 mm | 1.79 m/s, 282° | - | - |
| 1777991484 | 20° C | 49% | 1016.2 hPa | 0 mm | 1.34 m/s, 298° | - | - |
| 1777991170 | 20° C | 50% | 1016.3 hPa | 0 mm | 2.24 m/s, 280° | - | - |
| 1777990870 | 20° C | 50% | 1016.2 hPa | 0 mm | 2.68 m/s, 222° | - | - |
| 1777990562 | 19.44° C | 51% | 1016.1 hPa | 0 mm | 1.34 m/s, 175° | - | - |
| 1777990263 | 19.44° C | 52% | 1016.2 hPa | 0 mm | 0.89 m/s, 216° | - | - |
| 1777989961 | 19.44° C | 52% | 1016.2 hPa | 0 mm | 1.79 m/s, 250° | - | - |
| 1777989661 | 19.44° C | 51% | 1016.2 hPa | 0 mm | 1.34 m/s, 198° | - | - |
| 1777989360 | 19.44° C | 52% | 1016.2 hPa | 0 mm | 0.45 m/s, 260° | - | - |
| 1777989080 | 19.44° C | 52% | 1016.3 hPa | 0 mm | 1.34 m/s, 218° | - | - |
| 1777988780 | 18.89° C | 54% | 1016.3 hPa | 0 mm | 1.34 m/s, 238° | - | - |
| 1777988470 | 18.89° C | 54% | 1016.3 hPa | 0 mm | 0.89 m/s, 187° | - | - |
| 1777988166 | 18.33° C | 53% | 1016.3 hPa | 0 mm | 0.89 m/s, 297° | - | - |
| 1777987865 | 18.33° C | 56% | 1016.3 hPa | 0 mm | 1.34 m/s, 318° | - | - |
| 1777987565 | 17.78° C | 56% | 1016.3 hPa | 0 mm | 1.34 m/s, 309° | - | - |
| 1777987264 | 17.78° C | 57% | 1016.3 hPa | 0 mm | 1.79 m/s, 206° | - | - |
| 1777986957 | 17.78° C | 56% | 1016.2 hPa | 0 mm | 1.34 m/s, 265° | - | - |
| 1777986677 | 17.78° C | 58% | 1016.1 hPa | 0 mm | 0.89 m/s, 298° | - | - |
| 1777986363 | 17.22° C | 59% | 1015.8 hPa | 0 mm | 0.45 m/s, 158° | - | - |
| 1777986056 | 16.67° C | 60% | 1015.8 hPa | 0 mm | 0.45 m/s, 127° | - | - |
| 1777985765 | 16.11° C | 60% | 1015.8 hPa | 0 mm | 0.45 m/s, 211° | - | - |
| 1777985455 | 16.11° C | 60% | 1015.8 hPa | 0 mm | 1.34 m/s, 187° | - | - |
| 1777985162 | 16.11° C | 64% | 1015.7 hPa | 0 mm | 0.45 m/s, 226° | - | - |
| 1777984854 | 15.56° C | 64% | 1015.7 hPa | 0 mm | 0.45 m/s, 273° | - | - |
* Rain latest hour (hover to see other rain measurements)
** Current wind speed in m/s (hover to see current wind gust speed)